Terminal Aerodrome Forecast
Issued by NWS Sterling, VA

Current Version | Previous Version | Graphics & Text | Print | Product List | Glossary On
Versions: 1 2 3 4 5 6 7 8 9 10 11 12 13 14 15 16 17 18 19 20
000
FTUS41 KLWX 270800 AAA
TAFDCA
TAF AMD
KDCA 270859Z 2709/2806 VRB04KT P6SM SKC
     FM272100 30005KT P6SM SCT050
     FM280500 30004KT P6SM BKN050=

USA.gov is the U.S. government's official web portal to all federal, state and local government web resources and services.